#�ϑ�����,���ϕ���,���ϕ���,�ő啗��,�ő啗����������,�ő�u�ԕ���,�ő�u�ԕ�����������
#(�N����),(m/s)   ,(16����),(m/s)   ,(16����)        ,(m/s)       ,(16����)            
2012/2/14 0:01,0,1,0,15,0,16
2012/2/14 0:02,0,1,0,15,0,16
2012/2/14 0:03,0,1,0,15,0,16
2012/2/14 0:04,0,1,0,16,0,16
2012/2/14 0:05,0,1,0,16,0,16
2012/2/14 0:06,0,16,0,16,0,16
2012/2/14 0:07,0,16,0,1,0,16
2012/2/14 0:08,0,16,0,1,0,16
2012/2/14 0:09,0,16,0,1,0,16
2012/2/14 0:10,0,16,0,1,0,16
2012/2/14 0:11,0,1,0,1,0.1,1
2012/2/14 0:12,0,1,0,1,0.1,1
2012/2/14 0:13,0,1,0,1,0.1,1
2012/2/14 0:14,0,1,0,1,0,1
2012/2/14 0:15,0,1,0,1,0,1
2012/2/14 0:16,0,1,0,16,0,1
2012/2/14 0:17,0,1,0,16,0,1
2012/2/14 0:18,0,1,0,16,0,1
2012/2/14 0:19,0,1,0,16,0,1
2012/2/14 0:20,0,1,0,16,0.1,1
2012/2/14 0:21,0,1,0,1,0.1,1
2012/2/14 0:22,0,1,0,1,0,16
2012/2/14 0:23,0,1,0,1,0,16
2012/2/14 0:24,0,1,0,1,0.1,16
2012/2/14 0:25,0,1,0,1,0.8,1
2012/2/14 0:26,0.1,1,0.1,1,1,1
2012/2/14 0:27,0.2,1,0.2,1,0.8,1
2012/2/14 0:28,0.2,1,0.2,1,0.5,16
2012/2/14 0:29,0.2,1,0.2,1,0.1,2
2012/2/14 0:30,0.2,1,0.2,1,0.1,2
2012/2/14 0:31,0.2,1,0.2,1,0,2
2012/2/14 0:32,0.2,1,0.2,1,0,2
2012/2/14 0:33,0.2,1,0.2,1,0,2
2012/2/14 0:34,0.2,1,0.2,1,0,2
2012/2/14 0:35,0.1,2,0.2,1,0,2
2012/2/14 0:36,0.1,2,0.1,1,0.1,15
2012/2/14 0:37,0,1,0.1,1,0.1,15
2012/2/14 0:38,0,1,0,1,0.1,15
2012/2/14 0:39,0,1,0,1,0,16
2012/2/14 0:40,0,1,0,1,0,16
2012/2/14 0:41,0,1,0,1,0,16
2012/2/14 0:42,0,1,0,1,0.1,10
2012/2/14 0:43,0,16,0,1,0.1,10
2012/2/14 0:44,0,16,0,1,0.1,5
2012/2/14 0:45,0,16,0,2,0.1,5
2012/2/14 0:46,0,15,0,2,0.5,10
2012/2/14 0:47,0,13,0,1,0.3,9
2012/2/14 0:48,0,10,0,1,0.5,10
2012/2/14 0:49,0.1,10,0.1,10,0.8,9
2012/2/14 0:50,0.1,9,0.1,10,0.1,8
2012/2/14 0:51,0.1,9,0.1,10,0.5,9
2012/2/14 0:52,0.2,10,0.2,10,1.8,11
2012/2/14 0:53,0.3,10,0.3,10,1.8,12
2012/2/14 0:54,0.5,10,0.5,10,1.5,12
2012/2/14 0:55,0.5,11,0.5,10,1,12
2012/2/14 0:56,0.6,11,0.6,11,1,11
2012/2/14 0:57,0.7,11,0.7,11,1.4,12
2012/2/14 0:58,0.9,11,0.9,11,2.2,12
2012/2/14 0:59,1,11,1,11,2.2,12
2012/2/14 1:00,1.2,12,1.2,12,1.9,12
2012/2/14 1:01,1.3,12,1.3,12,1.8,10
2012/2/14 1:02,1.3,12,1.3,12,1.8,10
2012/2/14 1:03,1.2,12,1.3,12,1.4,10
2012/2/14 1:04,1.2,11,1.2,12,1.3,10
2012/2/14 1:05,1.2,11,1.2,12,1.5,9
2012/2/14 1:06,1.2,11,1.3,12,1.8,10
2012/2/14 1:07,1.2,11,1.2,12,1.1,9
2012/2/14 1:08,1.1,11,1.1,12,1.9,10
2012/2/14 1:09,1,10,1.1,12,1.9,10
2012/2/14 1:10,0.9,10,1,12,1,9
2012/2/14 1:11,0.8,10,0.9,12,0.8,9
2012/2/14 1:12,0.7,10,0.8,12,0.5,8
2012/2/14 1:13,0.6,10,0.7,11,0.6,9
2012/2/14 1:14,0.5,9,0.6,11,0.1,4
2012/2/14 1:15,0.5,9,0.5,11,0.9,9
2012/2/14 1:16,0.4,9,0.5,11,0.8,9
2012/2/14 1:17,0.4,9,0.4,11,0.1,11
2012/2/14 1:18,0.3,10,0.4,11,0.1,12
2012/2/14 1:19,0.2,10,0.3,10,0.1,9
2012/2/14 1:20,0.1,10,0.2,10,0.9,9
2012/2/14 1:21,0.1,10,0.1,10,0.9,10
2012/2/14 1:22,0.2,10,0.2,10,0.8,10
2012/2/14 1:23,0.2,10,0.2,10,0.9,10
2012/2/14 1:24,0.2,10,0.2,9,0.6,10
2012/2/14 1:25,0.2,10,0.2,9,0.5,10
2012/2/14 1:26,0.2,10,0.2,9,0.3,11
2012/2/14 1:27,0.2,11,0.2,9,0.1,11
2012/2/14 1:28,0.2,10,0.2,10,0,11
2012/2/14 1:29,0.2,10,0.2,10,0,11
2012/2/14 1:30,0.2,11,0.2,10,0,11
2012/2/14 1:31,0.1,11,0.2,10,0,11
2012/2/14 1:32,0.1,11,0.1,10,0.1,16
2012/2/14 1:33,0.1,12,0.1,10,0,16
2012/2/14 1:34,0,13,0.1,10,0,16
2012/2/14 1:35,0,13,0,10,0.5,16
2012/2/14 1:36,0.1,14,0.1,10,0.9,16
2012/2/14 1:37,0.1,15,0.1,11,0.5,3
2012/2/14 1:38,0.1,16,0.1,10,0,15
2012/2/14 1:39,0.1,16,0.1,10,0.1,1
2012/2/14 1:40,0.1,16,0.1,11,0.1,1
2012/2/14 1:41,0.1,1,0.1,11,0,1
2012/2/14 1:42,0.1,1,0.1,11,0,1
2012/2/14 1:43,0.1,1,0.1,12,0.1,3
2012/2/14 1:44,0.1,1,0.1,14,0,3
2012/2/14 1:45,0.1,1,0.1,14,0.1,3
2012/2/14 1:46,0,1,0.1,14,0.1,3
2012/2/14 1:47,0,2,0,15,0.1,3
2012/2/14 1:48,0,2,0,16,0,3
2012/2/14 1:49,0,2,0,16,0,3
2012/2/14 1:50,0,3,0,16,0,6
2012/2/14 1:51,0,3,0,1,0.3,5
2012/2/14 1:52,0,4,0,1,0,5
2012/2/14 1:53,0,4,0,1,0,5
2012/2/14 1:54,0,4,0,1,0,5
2012/2/14 1:55,0,4,0,1,0,5
2012/2/14 1:56,0,5,0,1,0,5
2012/2/14 1:57,0,5,0,2,0,5
2012/2/14 1:58,0,5,0,2,0,5
2012/2/14 1:59,0,5,0,2,0,5
2012/2/14 2:00,0,5,0,3,0,5
2012/2/14 2:01,0,5,0,3,0,5
2012/2/14 2:02,0,5,0,4,0,5
2012/2/14 2:03,0,5,0,4,0,5
2012/2/14 2:04,0,5,0,4,0.1,8
2012/2/14 2:05,0,6,0,4,0,10
2012/2/14 2:06,0,6,0,5,0.1,12
2012/2/14 2:07,0.1,6,0.1,6,0.8,11
2012/2/14 2:08,0.2,7,0.2,7,1.3,11
2012/2/14 2:09,0.2,8,0.2,7,1.3,10
2012/2/14 2:10,0.3,9,0.3,8,1.1,10
2012/2/14 2:11,0.4,10,0.4,9,1.1,10
2012/2/14 2:12,0.5,10,0.5,10,1,10
2012/2/14 2:13,0.5,10,0.5,10,0.9,11
2012/2/14 2:14,0.6,11,0.6,10,1.5,10
2012/2/14 2:15,0.7,11,0.7,11,1.5,10
2012/2/14 2:16,0.8,11,0.8,11,1.5,10
2012/2/14 2:17,0.9,10,0.9,10,1.4,9
2012/2/14 2:18,0.8,10,0.9,10,1.4,9
2012/2/14 2:19,0.7,10,0.8,10,0.3,9
2012/2/14 2:20,0.6,10,0.7,10,0.1,14
2012/2/14 2:21,0.6,10,0.6,10,0.1,8
2012/2/14 2:22,0.5,9,0.6,10,0.1,10
2012/2/14 2:23,0.4,9,0.5,10,0,8
2012/2/14 2:24,0.4,9,0.4,10,0.1,10
2012/2/14 2:25,0.3,9,0.3,10,1.3,10
2012/2/14 2:26,0.3,9,0.3,10,1.4,10
2012/2/14 2:27,0.3,10,0.3,10,1.4,11
2012/2/14 2:28,0.4,10,0.4,10,1.6,10
2012/2/14 2:29,0.5,10,0.5,10,1.4,11
2012/2/14 2:30,0.6,10,0.6,10,1.4,11
2012/2/14 2:31,0.7,10,0.7,10,1.5,10
2012/2/14 2:32,0.8,10,0.8,10,1.4,11
2012/2/14 2:33,0.8,11,0.8,10,0.9,11
2012/2/14 2:34,0.9,11,0.9,11,0.8,13
2012/2/14 2:35,0.8,11,0.9,11,0.3,12
2012/2/14 2:36,0.8,11,0.8,11,1,14
2012/2/14 2:37,0.7,12,0.8,11,0.9,14
2012/2/14 2:38,0.7,12,0.7,11,0.9,13
2012/2/14 2:39,0.6,12,0.7,11,0.6,13
2012/2/14 2:40,0.5,12,0.6,11,0.3,13
2012/2/14 2:41,0.4,12,0.5,11,0,13
2012/2/14 2:42,0.3,13,0.4,11,0.1,15
2012/2/14 2:43,0.2,13,0.3,11,0.1,1
2012/2/14 2:44,0.2,14,0.2,11,0,15
2012/2/14 2:45,0.2,14,0.2,11,0,16
2012/2/14 2:46,0.1,14,0.2,11,0.1,16
2012/2/14 2:47,0.1,15,0.1,12,0.1,16
2012/2/14 2:48,0,15,0.1,12,0.1,1
2012/2/14 2:49,0,16,0,12,0,3
2012/2/14 2:50,0,1,0,12,0,3
2012/2/14 2:51,0,1,0,12,0,3
2012/2/14 2:52,0,1,0,13,0,3
2012/2/14 2:53,0,2,0,13,0.1,3
2012/2/14 2:54,0,2,0,14,0,3
2012/2/14 2:55,0,2,0,14,0,3
2012/2/14 2:56,0,2,0,14,0,3
2012/2/14 2:57,0,2,0,15,0,13
2012/2/14 2:58,0,2,0,15,0,13
2012/2/14 2:59,0,1,0,16,0,13
2012/2/14 3:00,0,16,0,1,0,13
2012/2/14 3:01,0,16,0,1,0,13
2012/2/14 3:02,0,15,0,1,0,13
2012/2/14 3:03,0,14,0,2,0,13
2012/2/14 3:04,0,14,0,2,0,13
2012/2/14 3:05,0,14,0,2,0.1,13
2012/2/14 3:06,0,14,0,2,0,2
2012/2/14 3:07,0,14,0,2,0.1,3
2012/2/14 3:08,0,15,0,2,0,3
2012/2/14 3:09,0,15,0,1,0,3
2012/2/14 3:10,0,16,0,16,0,3
2012/2/14 3:11,0,1,0,15,0,3
2012/2/14 3:12,0,2,0,15,0,3
2012/2/14 3:13,0,3,0,14,0,5
2012/2/14 3:14,0,3,0,14,0.1,5
2012/2/14 3:15,0,4,0,14,0.1,5
2012/2/14 3:16,0,4,0,14,0,6
2012/2/14 3:17,0,4,0,14,0,10
2012/2/14 3:18,0,5,0,15,0,10
2012/2/14 3:19,0,6,0,16,0,10
2012/2/14 3:20,0,7,0,16,0,10
2012/2/14 3:21,0,8,0,1,0.1,9
2012/2/14 3:22,0,8,0,2,0,7
2012/2/14 3:23,0,9,0,3,0.1,9
2012/2/14 3:24,0,9,0,3,0.1,9
2012/2/14 3:25,0,9,0,4,0.6,9
2012/2/14 3:26,0,9,0,4,0.9,10
2012/2/14 3:27,0,9,0,4,0.9,9
2012/2/14 3:28,0.1,9,0.1,9,1,8
2012/2/14 3:29,0.1,9,0.1,9,0.5,9
2012/2/14 3:30,0.1,8,0.1,9,0.1,7
2012/2/14 3:31,0.1,8,0.1,9,0.9,9
2012/2/14 3:32,0.1,9,0.1,9,0.8,9
2012/2/14 3:33,0.2,9,0.2,9,0.8,10
2012/2/14 3:34,0.2,9,0.2,9,1.4,10
2012/2/14 3:35,0.3,9,0.3,9,1.6,10
2012/2/14 3:36,0.3,10,0.3,9,0.9,10
2012/2/14 3:37,0.4,10,0.4,10,1,10
2012/2/14 3:38,0.5,10,0.5,10,1,11
2012/2/14 3:39,0.5,10,0.5,10,0.9,11
2012/2/14 3:40,0.5,11,0.5,10,0.5,12
2012/2/14 3:41,0.5,11,0.5,10,0.6,12
2012/2/14 3:42,0.5,11,0.5,10,0.5,12
2012/2/14 3:43,0.5,11,0.5,10,0,12
2012/2/14 3:44,0.4,11,0.5,10,0,12
2012/2/14 3:45,0.3,12,0.4,10,0,13
2012/2/14 3:46,0.3,12,0.3,10,0.1,16
2012/2/14 3:47,0.2,12,0.3,10,0.1,16
2012/2/14 3:48,0.1,13,0.2,10,0.1,16
2012/2/14 3:49,0.1,13,0.1,10,0.3,16
2012/2/14 3:50,0,14,0.1,11,0.1,16
2012/2/14 3:51,0,14,0,11,0.1,16
2012/2/14 3:52,0,15,0,11,0.4,1
2012/2/14 3:53,0,15,0,11,0.5,1
2012/2/14 3:54,0.1,16,0.1,11,0.8,1
2012/2/14 3:55,0.1,16,0.1,12,1,2
2012/2/14 3:56,0.2,16,0.2,12,1,16
2012/2/14 3:57,0.3,16,0.3,16,1.1,2
2012/2/14 3:58,0.3,1,0.3,16,1.3,2
2012/2/14 3:59,0.5,1,0.5,1,1.5,2
2012/2/14 4:00,0.6,1,0.6,1,1.8,3
2012/2/14 4:01,0.7,2,0.7,1,1.6,3
2012/2/14 4:02,0.8,2,0.8,2,1.3,2
2012/2/14 4:03,0.9,2,0.9,2,1.8,3
2012/2/14 4:04,1,2,1,2,1.6,3
2012/2/14 4:05,1.1,2,1.1,2,1.6,3
2012/2/14 4:06,1.1,3,1.1,2,1.5,3
2012/2/14 4:07,1.2,3,1.2,3,1.1,4
2012/2/14 4:08,1.1,3,1.1,3,1,3
2012/2/14 4:09,1,3,1.1,3,0.9,3
2012/2/14 4:10,1,3,1,3,0.9,4
2012/2/14 4:11,0.9,3,1,3,1,4
2012/2/14 4:12,0.9,3,0.9,3,1.1,4
2012/2/14 4:13,0.8,4,0.8,3,1,4
2012/2/14 4:14,0.7,4,0.8,3,0.9,4
2012/2/14 4:15,0.6,4,0.7,3,0.9,4
2012/2/14 4:16,0.6,4,0.6,3,1,3
2012/2/14 4:17,0.6,4,0.6,3,1.4,4
2012/2/14 4:18,0.6,4,0.6,3,1.1,4
2012/2/14 4:19,0.6,4,0.6,3,0.8,3
2012/2/14 4:20,0.5,4,0.6,3,0.1,3
2012/2/14 4:21,0.5,4,0.5,3,0,4
2012/2/14 4:22,0.4,4,0.5,3,0.1,4
2012/2/14 4:23,0.4,4,0.4,4,0,5
2012/2/14 4:24,0.3,4,0.4,4,0.6,8
2012/2/14 4:25,0.3,4,0.3,4,0.9,8
2012/2/14 4:26,0.3,5,0.3,4,0.5,8
2012/2/14 4:27,0.2,5,0.3,4,0.8,8
2012/2/14 4:28,0.2,6,0.2,4,1,8
2012/2/14 4:29,0.2,6,0.2,4,0.8,9
2012/2/14 4:30,0.2,7,0.2,4,0.5,7
2012/2/14 4:31,0.2,7,0.2,4,0.1,7
2012/2/14 4:32,0.2,7,0.2,4,0.1,8
2012/2/14 4:33,0.2,7,0.2,4,0.1,8
2012/2/14 4:34,0.2,8,0.2,4,0,9
2012/2/14 4:35,0.1,8,0.2,4,0.1,12
2012/2/14 4:36,0.1,8,0.1,5,0.1,12
2012/2/14 4:37,0.1,9,0.1,5,0.3,10
2012/2/14 4:38,0,9,0.1,6,0.3,10
2012/2/14 4:39,0,9,0,6,0.5,10
2012/2/14 4:40,0,10,0,7,0,10
2012/2/14 4:41,0,11,0,7,0,14
2012/2/14 4:42,0,11,0,7,0,14
2012/2/14 4:43,0,12,0,8,0,14
2012/2/14 4:44,0,12,0,8,0,14
2012/2/14 4:45,0,13,0,8,0,14
2012/2/14 4:46,0,13,0,8,0.1,14
2012/2/14 4:47,0,13,0,9,0.1,14
2012/2/14 4:48,0,14,0,9,0.1,14
2012/2/14 4:49,0,14,0,9,0.1,13
2012/2/14 4:50,0,14,0,10,0.1,13
2012/2/14 4:51,0,14,0,11,0,13
2012/2/14 4:52,0,14,0,11,0,13
2012/2/14 4:53,0,14,0,12,0,13
2012/2/14 4:54,0,14,0,12,0,13
2012/2/14 4:55,0.1,13,0.1,13,1.5,9
2012/2/14 4:56,0.2,13,0.2,13,1.9,8
2012/2/14 4:57,0.3,12,0.3,12,1.6,8
2012/2/14 4:58,0.4,11,0.4,12,1.6,8
2012/2/14 4:59,0.5,11,0.5,11,1.4,8
2012/2/14 5:00,0.5,10,0.5,11,1.5,8
2012/2/14 5:01,0.6,9,0.6,10,1.5,7
2012/2/14 5:02,0.7,8,0.7,9,1.6,7
2012/2/14 5:03,0.8,8,0.8,8,1.8,7
2012/2/14 5:04,0.9,8,0.9,8,1.5,9
2012/2/14 5:05,1,8,1,8,1.9,7
2012/2/14 5:06,0.9,8,1,8,1.9,7
2012/2/14 5:07,0.9,8,1,8,2,8
2012/2/14 5:08,0.9,8,1,8,1.8,7
2012/2/14 5:09,0.9,8,0.9,8,1.3,10
2012/2/14 5:10,0.9,8,1,8,1.6,8
2012/2/14 5:11,1,8,1,8,1.3,9
2012/2/14 5:12,0.9,8,1,8,0.9,7
2012/2/14 5:13,0.8,8,0.9,8,0,6
2012/2/14 5:14,0.7,8,0.8,8,0.1,2
2012/2/14 5:15,0.6,7,0.7,8,0.5,4
2012/2/14 5:16,0.5,7,0.6,8,0.1,5
2012/2/14 5:17,0.4,6,0.5,8,0.1,5
2012/2/14 5:18,0.3,6,0.4,8,0.8,5
2012/2/14 5:19,0.3,5,0.3,8,0.9,4
2012/2/14 5:20,0.3,5,0.4,8,0.8,4
2012/2/14 5:21,0.2,4,0.3,8,0.5,4
2012/2/14 5:22,0.2,4,0.2,8,0,2
2012/2/14 5:23,0.2,4,0.2,8,0,2
2012/2/14 5:24,0.2,4,0.2,8,0,2
2012/2/14 5:25,0.2,3,0.2,7,0,2
2012/2/14 5:26,0.2,3,0.2,7,0,2
2012/2/14 5:27,0.2,3,0.2,6,0.1,13
2012/2/14 5:28,0.1,2,0.2,5,0.6,10
2012/2/14 5:29,0.1,2,0.1,5,0.8,10
2012/2/14 5:30,0,3,0.1,5,0.1,8
2012/2/14 5:31,0,3,0,4,0.1,10
2012/2/14 5:32,0,6,0,4,0.3,9
2012/2/14 5:33,0,8,0,4,0.5,9
2012/2/14 5:34,0.1,9,0.1,4,1.3,9
2012/2/14 5:35,0.1,9,0.1,3,1.3,9
2012/2/14 5:36,0.2,9,0.2,3,1,9
2012/2/14 5:37,0.2,9,0.2,3,1.3,9
2012/2/14 5:38,0.3,9,0.3,9,0.5,8
2012/2/14 5:39,0.3,9,0.3,9,1.3,9
2012/2/14 5:40,0.3,9,0.3,9,1.1,10
2012/2/14 5:41,0.4,9,0.4,9,1.3,11
2012/2/14 5:42,0.5,10,0.5,9,1.5,11
2012/2/14 5:43,0.7,10,0.7,10,1.9,10
2012/2/14 5:44,0.8,10,0.8,10,1.8,10
2012/2/14 5:45,0.8,10,0.8,10,1.5,10
2012/2/14 5:46,0.8,10,0.8,10,0.9,10
2012/2/14 5:47,0.8,10,0.8,10,0.9,11
2012/2/14 5:48,0.8,10,0.8,10,0.9,11
2012/2/14 5:49,0.7,11,0.8,10,0.1,12
2012/2/14 5:50,0.7,11,0.7,10,0.1,13
2012/2/14 5:51,0.6,11,0.7,10,0.6,14
2012/2/14 5:52,0.5,12,0.6,10,0.6,14
2012/2/14 5:53,0.4,12,0.5,10,0.1,14
2012/2/14 5:54,0.3,13,0.4,10,0,14
2012/2/14 5:55,0.2,13,0.3,10,0,14
2012/2/14 5:56,0.2,14,0.2,10,0,14
2012/2/14 5:57,0.1,14,0.1,10,0,3
2012/2/14 5:58,0.1,15,0.1,10,0,3
2012/2/14 5:59,0.1,16,0.1,11,0,3
2012/2/14 6:00,0.1,16,0.1,11,0.1,8
2012/2/14 6:01,0,16,0.1,11,0,10
2012/2/14 6:02,0,16,0,12,0,10
2012/2/14 6:03,0,6,0,12,0,9
2012/2/14 6:04,0,7,0,13,0,9
2012/2/14 6:05,0,7,0,13,0,1
2012/2/14 6:06,0,7,0,14,0.1,16
2012/2/14 6:07,0,7,0,14,0,3
2012/2/14 6:08,0,8,0,15,0,2
2012/2/14 6:09,0,11,0,16,0,2
2012/2/14 6:10,0,1,0,16,0,2
2012/2/14 6:11,0,1,0,16,0,2
2012/2/14 6:12,0,1,0,1,0,2
2012/2/14 6:13,0,1,0,6,0,1
2012/2/14 6:14,0,1,0,7,0,1
2012/2/14 6:15,0,2,0,7,0,2
2012/2/14 6:16,0,2,0,7,0,2
2012/2/14 6:17,0,2,0,7,0,2
2012/2/14 6:18,0,2,0,8,0.1,2
2012/2/14 6:19,0,1,0,12,0.1,16
2012/2/14 6:20,0,1,0,1,0.1,16
2012/2/14 6:21,0,1,0,1,0.1,1
2012/2/14 6:22,0,1,0,1,0.1,2
2012/2/14 6:23,0,1,0,1,0,2
2012/2/14 6:24,0,1,0,1,0,2
2012/2/14 6:25,0,1,0,2,0,2
2012/2/14 6:26,0,2,0,2,0,2
2012/2/14 6:27,0,2,0,2,0,2
2012/2/14 6:28,0,1,0,1,0.1,15
2012/2/14 6:29,0,1,0,1,0,15
2012/2/14 6:30,0,1,0,1,0.1,15
2012/2/14 6:31,0,1,0,1,0.1,15
2012/2/14 6:32,0,1,0,1,0.1,16
2012/2/14 6:33,0,16,0,1,0.1,14
2012/2/14 6:34,0,16,0,1,0.9,15
2012/2/14 6:35,0.1,16,0.1,16,1,15
2012/2/14 6:36,0.2,16,0.2,16,1,15
2012/2/14 6:37,0.2,15,0.2,16,0.8,14
2012/2/14 6:38,0.2,15,0.2,16,0.9,15
2012/2/14 6:39,0.3,15,0.3,15,1,16
2012/2/14 6:40,0.4,15,0.4,15,1,15
2012/2/14 6:41,0.5,15,0.5,15,0.9,16
2012/2/14 6:42,0.6,15,0.6,15,1.1,15
2012/2/14 6:43,0.6,15,0.6,15,1,15
2012/2/14 6:44,0.7,15,0.7,15,1,1
2012/2/14 6:45,0.7,15,0.7,15,1.1,16
2012/2/14 6:46,0.7,16,0.7,15,1.1,1
2012/2/14 6:47,0.8,16,0.8,16,1.4,16
2012/2/14 6:48,0.8,16,0.8,16,1.3,1
2012/2/14 6:49,0.8,16,0.8,16,1.3,1
2012/2/14 6:50,0.8,16,0.8,16,1.1,16
2012/2/14 6:51,0.8,16,0.8,16,1.5,16
2012/2/14 6:52,0.9,16,0.9,16,1.6,16
2012/2/14 6:53,0.9,16,0.9,16,1.5,16
2012/2/14 6:54,0.9,16,0.9,16,1.1,16
2012/2/14 6:55,0.9,16,0.9,16,1.1,15
2012/2/14 6:56,0.9,16,0.9,16,1,15
2012/2/14 6:57,0.8,16,0.9,16,0.8,15
2012/2/14 6:58,0.8,16,0.8,16,0,15
2012/2/14 6:59,0.7,15,0.8,16,0,12
2012/2/14 7:00,0.6,15,0.7,16,0,14
2012/2/14 7:01,0.5,15,0.6,16,0.3,12
2012/2/14 7:02,0.4,14,0.5,16,0.8,9
2012/2/14 7:03,0.3,14,0.4,16,0.1,11
2012/2/14 7:04,0.2,13,0.3,16,0.1,7
2012/2/14 7:05,0.1,13,0.2,16,0.1,7
2012/2/14 7:06,0,12,0.1,16,0,6
2012/2/14 7:07,0,11,0,16,0,6
2012/2/14 7:08,0,9,0,16,0,6
2012/2/14 7:09,0,8,0,15,0.1,6
2012/2/14 7:10,0,7,0,15,0.1,5
2012/2/14 7:11,0,6,0,15,0.1,4
2012/2/14 7:12,0,6,0,14,0,4
2012/2/14 7:13,0,5,0,14,0,3
2012/2/14 7:14,0,5,0,13,0.1,1
2012/2/14 7:15,0,4,0,13,0.1,2
2012/2/14 7:16,0,4,0,12,0.1,3
2012/2/14 7:17,0.1,4,0.1,4,0.9,3
2012/2/14 7:18,0.1,3,0.1,4,0.5,2
2012/2/14 7:19,0.1,3,0.1,4,0.1,3
2012/2/14 7:20,0.1,2,0.1,4,0.1,1
2012/2/14 7:21,0.1,2,0.1,4,0.1,2
2012/2/14 7:22,0.1,2,0.1,4,0.6,15
2012/2/14 7:23,0.1,2,0.1,4,0.6,16
2012/2/14 7:24,0.1,2,0.1,4,0.1,16
2012/2/14 7:25,0.1,1,0.1,4,0.8,16
2012/2/14 7:26,0.2,1,0.2,1,0.9,16
2012/2/14 7:27,0.1,1,0.2,1,0.8,15
2012/2/14 7:28,0.1,16,0.1,1,0.3,3
2012/2/14 7:29,0.1,16,0.1,1,0.1,16
2012/2/14 7:30,0.1,16,0.1,1,0.1,1
2012/2/14 7:31,0.1,16,0.1,1,0.1,1
2012/2/14 7:32,0.1,16,0.1,1,0.1,1
2012/2/14 7:33,0.1,16,0.1,1,0.1,1
2012/2/14 7:34,0.1,16,0.1,1,0.6,1
2012/2/14 7:35,0.2,1,0.2,1,0.9,1
2012/2/14 7:36,0.2,1,0.2,1,1,1
2012/2/14 7:37,0.2,1,0.2,16,0.8,1
2012/2/14 7:38,0.2,1,0.2,16,0,1
2012/2/14 7:39,0.2,1,0.2,16,0.1,16
2012/2/14 7:40,0.2,1,0.2,16,0.1,3
2012/2/14 7:41,0.2,1,0.2,16,0.1,3
2012/2/14 7:42,0.2,1,0.2,16,0.9,2
2012/2/14 7:43,0.3,2,0.3,2,1,2
2012/2/14 7:44,0.4,2,0.4,2,0.9,1
2012/2/14 7:45,0.3,2,0.4,2,0.9,2
2012/2/14 7:46,0.2,2,0.3,2,0.4,3
2012/2/14 7:47,0.2,2,0.2,2,0.1,3
2012/2/14 7:48,0.2,2,0.2,2,0,3
2012/2/14 7:49,0.2,2,0.2,2,0.1,1
2012/2/14 7:50,0.2,2,0.2,2,0.1,2
2012/2/14 7:51,0.2,2,0.2,2,0.1,2
2012/2/14 7:52,0.2,2,0.2,2,0.1,3
2012/2/14 7:53,0.1,2,0.2,2,0,3
2012/2/14 7:54,0,3,0.1,2,0,3
2012/2/14 7:55,0,3,0,2,0.1,3
2012/2/14 7:56,0,3,0,2,0.1,4
2012/2/14 7:57,0,3,0,2,0.5,3
2012/2/14 7:58,0,3,0,2,0.1,3
2012/2/14 7:59,0,3,0,2,0,4
2012/2/14 8:00,0,4,0,2,0.1,5
2012/2/14 8:01,0,4,0,2,0.1,5
2012/2/14 8:02,0,4,0,2,0.1,6
2012/2/14 8:03,0,4,0,2,0,6
2012/2/14 8:04,0,4,0,3,0.1,2
2012/2/14 8:05,0,4,0,3,0.1,1
2012/2/14 8:06,0,4,0,3,0,16
2012/2/14 8:07,0,3,0,3,0,16
2012/2/14 8:08,0,3,0,3,0.1,16
2012/2/14 8:09,0,2,0,3,0,13
2012/2/14 8:10,0,1,0,4,0,12
2012/2/14 8:11,0,15,0,4,0,11
2012/2/14 8:12,0,14,0,4,0.8,11
2012/2/14 8:13,0.1,14,0.1,14,0.8,10
2012/2/14 8:14,0.1,13,0.1,14,1.3,10
2012/2/14 8:15,0.2,12,0.2,12,1.3,10
2012/2/14 8:16,0.2,12,0.2,12,0.9,10
2012/2/14 8:17,0.3,11,0.3,11,0.9,10
2012/2/14 8:18,0.3,11,0.3,11,0.8,12
2012/2/14 8:19,0.3,11,0.3,11,0.1,11
2012/2/14 8:20,0.3,11,0.3,11,0,11
2012/2/14 8:21,0.3,10,0.3,11,0,11
2012/2/14 8:22,0.3,10,0.3,11,0,11
2012/2/14 8:23,0.2,11,0.3,11,0,11
2012/2/14 8:24,0.2,11,0.2,11,0.1,9
2012/2/14 8:25,0.1,11,0.2,11,0.1,9
2012/2/14 8:26,0.1,10,0.1,11,0,9
2012/2/14 8:27,0,10,0.1,11,0.1,6
2012/2/14 8:28,0,10,0,11,1,9
2012/2/14 8:29,0,10,0,11,0.6,8
2012/2/14 8:30,0.1,10,0.1,11,0.8,8
2012/2/14 8:31,0.1,10,0.1,10,0.8,11
2012/2/14 8:32,0.2,10,0.2,10,1.3,10
2012/2/14 8:33,0.4,10,0.4,10,1.5,11
2012/2/14 8:34,0.5,10,0.5,10,1.8,11
2012/2/14 8:35,0.7,10,0.7,10,2.1,9
2012/2/14 8:36,0.8,10,0.8,10,2.1,9
2012/2/14 8:37,0.9,10,0.9,10,1.9,9
2012/2/14 8:38,1,10,1,10,2.2,9
2012/2/14 8:39,1.2,10,1.2,10,3,9
2012/2/14 8:40,1.4,10,1.4,10,3.1,11
2012/2/14 8:41,1.6,10,1.6,10,3,11
2012/2/14 8:42,1.7,10,1.7,10,3.5,10
2012/2/14 8:43,1.8,10,1.8,10,3.1,10
2012/2/14 8:44,1.8,10,1.8,10,3.5,9
2012/2/14 8:45,1.9,10,1.9,10,4.4,8
2012/2/14 8:46,2,10,2,10,3.1,10
2012/2/14 8:47,2.1,10,2.1,10,3.2,10
2012/2/14 8:48,2.1,10,2.1,10,2.7,9
2012/2/14 8:49,2,10,2.1,10,2.6,9
2012/2/14 8:50,1.9,10,2,10,2.6,11
2012/2/14 8:51,1.9,10,2,10,3.1,10
2012/2/14 8:52,1.7,10,1.8,10,1.1,9
2012/2/14 8:53,1.5,10,1.7,10,0.8,11
2012/2/14 8:54,1.4,10,1.5,10,1.8,10
2012/2/14 8:55,1.2,10,1.4,10,1,13
2012/2/14 8:56,1.1,10,1.2,10,1.4,8
2012/2/14 8:57,0.9,10,1.1,10,1.5,11
2012/2/14 8:58,0.9,10,0.9,10,1.5,11
2012/2/14 8:59,0.8,10,0.8,10,1.3,9
2012/2/14 9:00,0.7,10,0.8,10,1.3,10
2012/2/14 9:01,0.7,11,0.7,10,1.9,10
2012/2/14 9:02,0.7,10,0.7,10,1.8,9
2012/2/14 9:03,0.9,10,0.9,10,2.2,10
2012/2/14 9:04,1,11,1,10,2.4,10
2012/2/14 9:05,1,10,1,10,2,11
2012/2/14 9:06,1.1,10,1.1,10,1.8,9
2012/2/14 9:07,1.1,10,1.1,10,2.1,9
2012/2/14 9:08,1.1,10,1.1,10,2.1,9
2012/2/14 9:09,1,10,1.1,10,0.8,10
2012/2/14 9:10,1,10,1,10,0.8,10
2012/2/14 9:11,0.9,10,1,10,0.6,9
2012/2/14 9:12,0.8,10,0.9,10,0,10
2012/2/14 9:13,0.6,10,0.8,10,0.3,10
2012/2/14 9:14,0.4,10,0.6,10,0,10
2012/2/14 9:15,0.3,10,0.4,10,0.3,13
2012/2/14 9:16,0.2,11,0.3,10,0.1,13
2012/2/14 9:17,0.1,11,0.2,10,0.5,7
2012/2/14 9:18,0.1,10,0.1,10,0.1,10
2012/2/14 9:19,0.1,10,0.1,10,0.6,9
2012/2/14 9:20,0.1,10,0.1,10,0.9,9
2012/2/14 9:21,0.1,10,0.1,10,0.3,9
2012/2/14 9:22,0.1,10,0.1,10,0,9
2012/2/14 9:23,0.1,10,0.1,10,0,9
2012/2/14 9:24,0.1,10,0.1,10,0,9
2012/2/14 9:25,0.1,10,0.1,10,0.1,9
2012/2/14 9:26,0.1,9,0.1,11,0,9
2012/2/14 9:27,0.1,9,0.1,11,0,9
2012/2/14 9:28,0.1,9,0.1,10,0,9
2012/2/14 9:29,0.1,9,0.1,10,0.1,5
2012/2/14 9:30,0,9,0.1,10,0.1,13
2012/2/14 9:31,0,9,0,10,0.3,10
2012/2/14 9:32,0,10,0,10,0.4,12
2012/2/14 9:33,0,10,0,10,0.4,12
2012/2/14 9:34,0.1,10,0.1,10,0.6,12
2012/2/14 9:35,0.1,11,0.1,10,0.3,12
2012/2/14 9:36,0.1,11,0.1,9,0.4,10
2012/2/14 9:37,0.1,11,0.1,9,0.5,10
2012/2/14 9:38,0.2,11,0.2,11,0.5,11
2012/2/14 9:39,0.2,11,0.2,11,0.4,12
2012/2/14 9:40,0.2,11,0.2,11,0,12
2012/2/14 9:41,0.2,12,0.2,11,0.4,1
2012/2/14 9:42,0.2,12,0.2,11,0,15
2012/2/14 9:43,0.1,12,0.1,11,0,15
2012/2/14 9:44,0.1,13,0.1,11,0,15
2012/2/14 9:45,0.1,13,0.1,11,0,15
2012/2/14 9:46,0.1,13,0.1,11,0.3,8
2012/2/14 9:47,0.1,13,0.1,11,1.1,8
2012/2/14 9:48,0.1,14,0.1,11,0.5,10
2012/2/14 9:49,0.1,14,0.1,11,1.3,11
2012/2/14 9:50,0.2,14,0.2,11,1.5,10
2012/2/14 9:51,0.2,13,0.2,12,0.9,8
2012/2/14 9:52,0.2,12,0.2,14,1,9
2012/2/14 9:53,0.3,11,0.3,12,1.4,9
2012/2/14 9:54,0.4,11,0.4,11,1.5,11
2012/2/14 9:55,0.6,10,0.6,10,2,10
2012/2/14 9:56,0.7,10,0.7,10,1.9,9
2012/2/14 9:57,0.8,10,0.8,10,1.8,9
2012/2/14 9:58,0.9,10,0.9,10,1.6,11
2012/2/14 9:59,1,10,1,10,2,11
2012/2/14 10:00,1,10,1,10,2.1,10
2012/2/14 10:01,1,10,1,10,1,8
2012/2/14 10:02,1.1,10,1.1,10,1.6,9
2012/2/14 10:03,1.1,10,1.1,10,1.8,10
2012/2/14 10:04,1,10,1.1,10,1.6,12
2012/2/14 10:05,1,10,1,10,1.5,10
2012/2/14 10:06,1,10,1,10,1.1,10
2012/2/14 10:07,0.9,10,1,10,0.9,10
2012/2/14 10:08,0.8,10,0.8,10,0,11
2012/2/14 10:09,0.6,10,0.8,10,0.1,8
2012/2/14 10:10,0.5,10,0.6,10,0.1,4
2012/2/14 10:11,0.4,10,0.5,10,0.1,5
2012/2/14 10:12,0.4,10,0.4,10,0.1,5
2012/2/14 10:13,0.3,9,0.4,10,0,5
2012/2/14 10:14,0.2,8,0.3,10,0,5
2012/2/14 10:15,0.2,8,0.2,10,0.9,11
2012/2/14 10:16,0.2,9,0.2,10,1.1,11
2012/2/14 10:17,0.1,9,0.2,10,0.6,13
2012/2/14 10:16,0.1,9,0.2,10,0.9,12
2012/2/14 10:17,0.2,9,0.2,10,1.1,11
2012/2/14 10:18,0.2,9,0.2,10,1.1,12
2012/2/14 10:19,0.3,10,0.3,10,1.3,9
2012/2/14 10:20,0.4,10,0.4,10,1.8,10
2012/2/14 10:21,0.6,10,0.6,10,1.9,11
2012/2/14 10:22,0.6,11,0.6,10,1,11
2012/2/14 10:23,0.7,11,0.7,11,1.5,9
2012/2/14 10:24,0.7,11,0.7,11,1.3,10
2012/2/14 10:25,0.8,11,0.8,11,2.1,10
2012/2/14 10:26,0.8,11,0.8,11,1.8,9
2012/2/14 10:27,0.9,10,0.9,10,1.1,11
2012/2/14 10:28,0.9,10,0.9,10,0.9,10
2012/2/14 10:29,0.8,10,0.9,10,0.6,10
2012/2/14 10:30,0.7,10,0.8,10,0,10
2012/2/14 10:31,0.5,10,0.7,10,0.1,9
2012/2/14 10:32,0.5,10,0.5,10,0.6,6
2012/2/14 10:33,0.5,9,0.5,10,1.1,6
2012/2/14 10:34,0.5,9,0.5,10,1.3,6
2012/2/14 10:35,0.5,9,0.5,10,1.3,6
2012/2/14 10:36,0.5,8,0.5,10,1.1,6
2012/2/14 10:37,0.4,8,0.5,10,1,7
2012/2/14 10:38,0.4,7,0.4,10,0.8,7
2012/2/14 10:39,0.4,7,0.4,10,0,1
2012/2/14 10:40,0.4,7,0.4,10,0,11
2012/2/14 10:41,0.4,7,0.4,10,0.1,9
2012/2/14 10:42,0.4,8,0.4,10,0.3,9
2012/2/14 10:43,0.3,8,0.4,9,0.1,9
2012/2/14 10:44,0.2,8,0.3,9,0,8
2012/2/14 10:45,0.2,8,0.2,9,0,6
2012/2/14 10:46,0.1,8,0.2,8,0.4,7
2012/2/14 10:47,0.1,8,0.1,8,0.8,7
2012/2/14 10:48,0.1,8,0.1,7,0.9,7
2012/2/14 10:49,0.2,8,0.2,7,0.9,7
2012/2/14 10:50,0.2,7,0.2,7,0.8,7
2012/2/14 10:51,0.2,7,0.2,7,0.1,7
2012/2/14 10:52,0.2,7,0.2,8,0.1,9
2012/2/14 10:53,0.2,7,0.2,8,0.1,9
2012/2/14 10:54,0.2,7,0.2,8,0,7
2012/2/14 10:55,0.2,7,0.2,8,0,2
2012/2/14 10:56,0.2,7,0.2,8,0.1,9
2012/2/14 10:57,0.2,7,0.2,8,0.1,14
2012/2/14 10:58,0.1,8,0.2,8,0.1,10
2012/2/14 10:59,0,9,0.1,8,0,11
2012/2/14 11:00,0,10,0,7,0.1,13
2012/2/14 11:01,0,11,0,7,0,13
2012/2/14 11:02,0,11,0,7,0,12
2012/2/14 11:03,0,12,0,7,0.1,14
2012/2/14 11:04,0,13,0,7,0,15
2012/2/14 11:05,0,13,0,7,0,1
2012/2/14 11:06,0,13,0,7,0,1
2012/2/14 11:07,0,13,0,7,0,12
2012/2/14 11:08,0,13,0,8,0,12
2012/2/14 11:09,0,13,0,9,0,12
2012/2/14 11:10,0,13,0,10,0,12
2012/2/14 11:11,0,13,0,11,0,12
2012/2/14 11:12,0,13,0,11,0,12
2012/2/14 11:13,0,13,0,12,0,12
2012/2/14 11:14,0,13,0,13,0,12
2012/2/14 11:15,0,12,0,13,0,12
2012/2/14 11:16,0,12,0,13,0,12
2012/2/14 11:17,0,12,0,13,0.1,7
2012/2/14 11:18,0,12,0,13,0.5,7
2012/2/14 11:19,0,11,0,13,0.4,7
2012/2/14 11:20,0.1,10,0.1,11,1,7
2012/2/14 11:21,0.2,9,0.2,9,1.4,7
2012/2/14 11:22,0.3,8,0.3,8,1.4,6
2012/2/14 11:23,0.4,7,0.4,7,1.3,6
2012/2/14 11:24,0.4,7,0.4,7,1,7
2012/2/14 11:25,0.5,7,0.5,7,1,8
2012/2/14 11:26,0.5,7,0.5,7,0.5,7
2012/2/14 11:27,0.5,7,0.5,7,0.3,7
2012/2/14 11:28,0.5,7,0.5,7,0.9,8
2012/2/14 11:29,0.5,7,0.5,7,0.6,9
2012/2/14 11:30,0.5,8,0.5,7,0.8,9
2012/2/14 11:31,0.4,8,0.5,7,1,9
2012/2/14 11:32,0.4,8,0.4,7,1.3,10
2012/2/14 11:33,0.3,9,0.4,7,1,8
2012/2/14 11:34,0.3,9,0.3,7,1.3,8
2012/2/14 11:35,0.3,9,0.3,7,0.8,10
2012/2/14 11:36,0.4,9,0.4,7,1.8,9
2012/2/14 11:37,0.5,9,0.5,7,1.6,8
2012/2/14 11:38,0.5,9,0.5,7,0.8,13
2012/2/14 11:39,0.5,10,0.5,8,0.1,14
2012/2/14 11:40,0.5,10,0.5,8,0,16
2012/2/14 11:41,0.5,10,0.5,9,1.3,8
2012/2/14 11:42,0.4,10,0.5,9,1.4,7
2012/2/14 11:43,0.5,10,0.5,9,1.4,9
2012/2/14 11:44,0.5,10,0.5,9,0.8,8
2012/2/14 11:45,0.5,10,0.5,9,1,7